DK4HPA-4 Weather Reports


time (UTC)temp
F
wind
direction
speed
knots
gust
knots
rain 1hr
in
rain 24hr
in
rain mn
in
humidity
%
barometer
mb
20260507065125 45 344 3.5 7.8 0.00 0.29 0.00 92 1021.2
20260507064039 45 322 2.6 7.8 0.00 0.29 0.00 93 1021.0
20260507063102 45 1 3.5 7.0 0.00 0.29 0.00 93 1021.0
20260507062036 45 312 2.6 5.2 0.00 0.29 0.00 94 1020.8
20260507061149 45 353 1.7 4.3 0.00 0.29 0.00 94 1020.8
20260507055214 45 351 2.6 5.2 0.00 0.29 0.00 95 1020.6
20260507053149 44 323 1.7 4.3 0.00 0.29 0.00 96 1020.3
20260507052038 44 321 0.9 4.3 0.00 0.29 0.00 96 1020.3
20260507051101 44 34 1.7 4.3 0.00 0.29 0.00 97 1020.3
20260507044037 44 306 0.0 1.7 0.00 0.29 0.00 98 1020.0
20260507043125 44 314 0.9 2.6 0.00 0.29 0.00 98 1019.9
20260507035212 44 303 0.9 2.6 0.00 0.29 0.00 98 1019.4
20260507034213 44 0.0 0.0 0.00 0.29 0.00 98 1019.3
20260507032212 44 294 0.0 2.6 0.00 0.29 0.00 98 1019.3
20260507031149 44 0.0 0.0 0.00 0.29 0.00 98 1019.3
20260507030037 44 0.0 0.0 0.00 0.29 0.00 98 1019.2
20260507025100 44 282 0.9 4.3 0.00 0.29 0.00 98 1019.0
20260507023036 44 303 0.9 4.3 0.00 0.29 0.00 98 1018.9
20260507021037 44 315 0.9 4.3 0.00 0.29 0.00 98 1018.7
20260507020036 44 323 0.9 2.6 0.00 0.29 0.00 98 1018.6
20260507014126 44 356 1.7 5.2 0.00 0.29 0.00 98 1018.5
20260507013036 44 306 1.7 4.3 0.00 0.29 0.00 98 1018.5
20260507012023 44 338 1.7 5.2 0.00 0.29 0.00 98 1018.5
20260507005036 45 281 1.7 2.6 0.00 0.29 0.00 98 1018.2
20260507004125 45 310 1.7 7.0 0.00 0.29 0.00 99 1018.2
20260507003100 45 351 0.9 4.3 0.00 0.29 0.00 99 1018.2
20260507002101 45 314 2.6 5.2 0.00 0.29 0.00 99 1018.3
20260507001037 45 305 1.7 5.2 0.00 0.29 0.00 99 1018.2
20260507000149 45 348 1.7 4.3 0.00 0.29 0.00 99 1018.0
20260506235100 45 303 0.9 2.6 0.00 0.29 0.00 98 1018.1
20260506234036 45 307 1.7 4.3 0.00 0.29 0.00 98 1018.2
20260506233036 45 307 2.6 7.8 0.00 0.29 0.00 98 1018.2
20260506231037 45 346 1.7 5.2 0.00 0.29 0.00 99 1018.1
20260506230037 46 337 2.6 4.3 0.00 0.29 0.00 99 1018.1
20260506225150 46 335 0.9 4.3 0.00 0.29 0.00 99 1018.2
20260506224036 46 337 1.7 7.0 0.01 0.29 0.00 99 1018.0
20260506223037 46 320 1.7 4.3 0.01 0.29 0.00 99 1017.8
20260506222124 47 15 1.7 4.3 0.01 0.29 0.00 99 1017.7
20260506221125 47 295 0.9 2.6 0.01 0.29 0.00 99 1017.6
20260506220036 47 17 1.7 5.2 0.01 0.29 0.00 99 1017.5
20260506215148 47 293 0.9 2.6 0.02 0.29 0.29 99 1017.5
20260506214213 47 339 0.9 4.3 0.01 0.28 0.28 99 1017.4
20260506212100 47 317 0.9 4.3 0.02 0.28 0.28 99 1017.3
20260506211125 47 312 0.9 2.6 0.02 0.28 0.28 99 1017.2
20260506210036 47 322 0.9 2.6 0.02 0.28 0.28 99 1017.3
20260506205101 47 299 0.9 1.7 0.02 0.27 0.27 99 1017.2
20260506203149 47 292 0.9 4.3 0.01 0.26 0.26 99 1017.1
20260506202213 47 0.0 0.0 0.01 0.26 0.26 99 1017.1
20260506201101 47 333 1.7 4.3 0.02 0.26 0.26 99 1017.1
20260506200149 47 283 0.0 1.7 0.03 0.26 0.26 99 1016.8
20260506195213 47 296 0.0 2.6 0.02 0.25 0.25 99 1016.9
20260506194100 47 300 0.9 4.3 0.03 0.25 0.25 99 1016.8
20260506193037 47 310 0.9 2.6 0.04 0.25 0.25 99 1016.7
20260506192101 47 298 0.9 2.6 0.05 0.25 0.25 99 1016.7
20260506190214 47 315 1.7 5.2 0.03 0.23 0.23 99 1016.6
20260506185037 48 316 1.7 4.3 0.03 0.23 0.23 99 1016.5
20260506184237 48 350 0.9 4.3 0.03 0.22 0.22 98 1016.4
20260506183149 48 38 1.7 5.2 0.02 0.21 0.21 98 1016.2
20260506182214 48 310 1.7 4.3 0.02 0.20 0.20 98 1016.1
20260506181037 48 337 1.7 4.3 0.03 0.20 0.20 98 1016.1
20260506180037 48 311 1.7 4.3 0.04 0.20 0.20 97 1015.9
20260506175037 48 330 3.5 7.8 0.04 0.20 0.20 97 1015.9
20260506174037 48 326 0.0 2.6 0.03 0.19 0.19 97 1015.7
20260506173036 48 333 1.7 4.3 0.04 0.19 0.19 96 1015.7
20260506172101 48 297 0.9 4.3 0.03 0.18 0.18 95 1015.7
20260506171125 48 323 1.7 5.2 0.02 0.17 0.17 94 1015.6
20260506165128 49 314 1.7 4.3 0.01 0.16 0.16 92 1015.5
20260506164213 48 324 1.7 4.3 0.02 0.16 0.16 92 1015.4
20260506163037 49 303 1.7 4.3 0.01 0.15 0.15 91 1015.4
20260506162125 49 287 0.9 2.6 0.02 0.15 0.15 89 1015.4
20260506161125 49 321 1.7 2.6 0.02 0.15 0.15 88 1015.5
20260506160037 49 302 1.7 5.2 0.03 0.15 0.15 88 1015.5
20260506155125 50 325 2.6 4.3 0.04 0.15 0.15 89 1015.5
20260506154125 50 307 1.7 2.6 0.03 0.14 0.14 90 1015.5
20260506153037 50 338 1.7 4.3 0.03 0.14 0.14 89 1015.6
20260506152237 50 307 1.7 2.6 0.02 0.13 0.13 89 1015.5
20260506151125 50 333 1.7 4.3 0.03 0.13 0.13 87 1015.5
20260506150101 50 335 3.5 7.0 0.03 0.12 0.12 87 1015.5
20260506145120 50 349 2.6 5.2 0.03 0.11 0.11 86 1015.5
20260506142649 50 310 1.7 4.3 0.05 0.11 0.11 84 1015.5
20260506141758 50 320 2.6 5.2 0.04 0.10 0.10 82 1015.5
20260506135536 51 5 1.7 2.6 0.02 0.08 0.08 83 1015.5
20260506134536 51 328 2.6 5.2 0.01 0.07 0.07 82 1015.5
20260506133536 51 306 2.6 4.3 0.02 0.07 0.07 81 1015.6
20260506132737 51 318 2.6 5.2 0.01 0.06 0.06 79 1015.5
20260506130536 52 341 3.5 7.8 0.01 0.06 0.06 77 1015.5
20260506125624 52 341 1.7 4.3 0.01 0.06 0.06 76 1015.4
20260506124625 52 310 3.5 7.8 0.01 0.06 0.06 74 1015.5
20260506123625 52 70 2.6 7.8 0.00 0.05 0.05 73 1015.3
20260506122536 53 334 1.7 4.3 0.00 0.05 0.05 74 1015.2
20260506121713 52 337 3.5 10.4 0.00 0.05 0.05 73 1015.2
20260506114737 52 333 2.6 5.2 0.00 0.05 0.05 76 1015.0
20260506113624 52 40 3.5 7.0 0.00 0.05 0.05 74 1015.0
20260506112624 52 304 2.6 7.8 0.00 0.05 0.05 76 1015.0
20260506111536 52 338 4.3 9.6 0.00 0.05 0.05 77 1015.1
20260506110649 52 313 2.6 5.2 0.00 0.05 0.05 78 1015.0
20260506105600 52 330 3.5 9.6 0.00 0.05 0.05 75 1015.1
20260506104614 52 325 2.6 5.2 0.00 0.05 0.05 76 1015.1
20260506103614 52 1 3.5 9.6 0.00 0.05 0.05 78 1015.1
20260506102536 51 333 5.2 7.8 0.00 0.05 0.05 78 1015.0
20260506101712 51 359 2.6 7.8 0.00 0.05 0.05 80 1015.0
20260506095537 50 339 4.3 7.8 0.00 0.05 0.05 80 1015.0
20260506094536 50 315 2.6 5.2 0.00 0.05 0.05 83 1015.0
20260506093537 49 18 3.5 9.6 0.01 0.05 0.05 83 1015.0
20260506092536 49 331 2.6 5.2 0.01 0.05 0.05 85 1014.9
20260506091559 49 354 2.6 5.2 0.01 0.05 0.05 86 1014.8
20260506090710 48 307 2.6 7.8 0.02 0.05 0.05 86 1014.9
20260506085536 48 309 2.6 4.3 0.02 0.05 0.05 87 1014.9
20260506084625 47 329 2.6 5.2 0.03 0.05 0.05 87 1014.9
20260506083737 47 320 2.6 5.2 0.02 0.04 0.04 88 1014.8
20260506082602 47 321 2.6 4.3 0.03 0.04 0.04 89 1014.8
20260506081600 47 310 1.7 2.6 0.03 0.04 0.04 88 1014.8
20260506070537 48 352 3.5 7.0 0.00 0.02 0.00 78 1014.5